Regional Weather Roundup
Issued by NWS Wakefield, VA

Home | Current Version | Previous Version | Graphics & Text | Print | Product List | Glossary On
Versions: 1 2 3 4 5 6 7 8 9 10 11 12 13 14 15 16 17 18 19 20 21 22 23 24 25 26 27 28 29 30 31 32 33 34 35 36 37 38 39 40 41 42 43 44 45 46 47 48 49 50
000
ASUS41 KAKQ 290010
RWRAKQ

REGIONAL WEATHER ROUNDUP
NATIONAL WEATHER SERVICE WAKEFIELD VA
700 PM EST WED JAN 28 2015

Note: "fair" indicates few or no clouds below 12,000 feet with no
significant weather and/or obstructions to visibility. * = Denotes
station may not report precipitation (e.g., rain,snow,etc.),
thunder or fog.

VAZ042-051-052>054-056-290100-
NORTHERN VIRGINIA

CITY           SKY/WX    TMP DP  RH WIND       PRES   REMARKS
WASH NATIONAL  CLEAR     34   5  29 NW13      30.31R WCI  25
DULLES         PTCLDY    29   7  39 NW6       30.29R
FORT BELVOIR   CLEAR     30   7  37 NW3       30.31R
QUANTICO       CLEAR     32   6  33 N8        30.32R
FREDERICKSBRG* CLEAR     33   7  33 NW5       30.30R
STAFFORD*      CLEAR     27   7  41 CALM      30.34R
WARRENTON      CLEAR     27  15  61 CALM      30.29R
CULPEPER*      CLEAR     28   9  43 CALM      30.30R
MANASSAS*      CLEAR     30   9  40 N6        30.30R
LEESBURG*      CLEAR     32  10  40 N8        30.31R
WINCHESTER     CLEAR     28   3  34 W3        30.30R
FRONT ROYAL*   FAIR      28   7  40 CALM      30.28S
LURAY*         FAIR      28  14  54 CALM      30.29R
$$

VAZ048-049-060>072-079>083-290100-
CENTRAL AND SOUTH CENTRAL VIRGINIA

CITY           SKY/WX    TMP DP  RH WIND       PRES   REMARKS
RICHMOND       PTCLDY    36   2  23 NW8       30.28R
CHESTERFIELD*  FAIR      30   7  37 N5        30.29R
PETERSBURG*    CLEAR     27  17  63 CALM      30.29R
HANOVER        CLEAR     34   3  27 N6        30.30R
TAPPAHANNOCK*  CLEAR     32   2  28 W3        30.28R
QUINTON*       FAIR      32   6  33 NW3       30.28R
CHARLOTTSVILLE CLEAR     32   0  25 NW6       30.28R
GORDONSVILLE*  FAIR      26  15  61 CALM      30.28R
ORANGE*        CLEAR     28  18  64 CALM      30.30R
LOUISA*        FAIR      27  16  63 CALM      30.27R
BUMPASS*       FAIR      32   7  35 CALM      30.28R
FARMVILLE*     CLEAR     33   1  25 CALM      30.28R
CREWE*         FAIR      27  15  61 CALM      30.28R
FORT PICKETT*  FAIR      32   9  39 CALM      30.28R
CHASE CITY*    FAIR      32  18  57 CALM      30.28R
CLARKSVILLE*   FAIR      32  16  51 CALM      30.28R
SOUTH HILL*    CLEAR     29  17  61 CALM      30.33R
LAWRENCEVILLE* FAIR      31  16  54 CALM      30.27R
EMPORIA*       CLEAR     27  19  74 CALM      30.30R
$$

VAZ088>098-290100-
SOUTHEAST VIRGINIA

CITY           SKY/WX    TMP DP  RH WIND       PRES   REMARKS
NORFOLK        CLEAR     37  10  32 N8        30.26R
VIRGINIA BEACH CLEAR     36  14  40 N14       30.25R
NORFOLK NAVAL  PTCLDY    39  12  33 N10       30.27R
WEST POINT*    CLEAR     35   3  25 CALM      30.30R
SALUDA*        FAIR      33  12  41 N10       30.27R WCI  25
NEWPORT NEWS   CLEAR     36   7  29 N6        30.27R
LANGLEY AFB    CLEAR     34   8  34 NW7       30.27R
FORT EUSTIS    CLEAR     37  16  42 N9        30.25R
WILLIAMSBURG*    N/A     36  10  35 N5        30.28R
HR EXEC AP*    FAIR      27  10  50 NW3       30.28S
FRANKLIN*      CLEAR     29  13  51 CALM      30.28R
WAKEFIELD      CLEAR     28  15  58 CALM      30.28R
$$

VAZ020-022-025-037-045-290100-
WEST CENTRAL AND SOUTHWEST VIRGINIA

CITY           SKY/WX    TMP DP  RH WIND       PRES   REMARKS
STAUNTON*      CLEAR     28   8  43 NE6       30.29R
WAYNESBORO*    FAIR      28   6  38 N3        30.26R
HOT SPRINGS VA CLEAR     23  12  62 NW6       30.13R
LYNCHBURG      CLEAR     27   8  44 CALM      30.27R
DANVILLE       CLEAR     31   9  39 CALM      30.29R
SOUTH BOSTON*  FAIR      32   9  38 CALM      30.29R
MARTINSVILLE   CLEAR     30  16  56 CALM      30.29R
ROANOKE        CLEAR     36   9  32 NW8       30.28R
BLACKSBURG     CLEAR     29  10  44 W3        30.27R
DUBLIN*        CLEAR     32  17  52 NW3       30.26R
MARION*        CLEAR     31  19  62 W8        30.25S
HILLSVILLE*    FAIR      32  17  53 W3        30.22R
RICHLANDS*     FAIR      31  16  52 CALM      30.22S
WISE*          CLEAR     32  19  59 S6        30.21S
ABINGDON*      CLEAR     32  20  60 CALM      30.24F
$$

MDZ021>025-VAZ099-100-290100-
SOUTHERN MARYLAND AND THE DELMARVA PENINSULA

CITY           SKY/WX    TMP DP  RH WIND       PRES   REMARKS
PATUXENT RIVER PTCLDY    32  10  40 NW16      30.27R WCI  21
BAY BRIDGE APT   N/A     32  10  40 NW9       30.28R
LEONARDTOWN    CLEAR     32   5  32 NW3       30.29
DOVER          CLEAR     27   9  46 NW9       30.25R
GEORGETOWN     CLEAR     31   6  35 NW6       30.25R
EASTON         CLEAR     34  14  44 NW7       30.31R
CAMBRIDGE      CLEAR     36  10  35 NW10      30.26R
SALISBURY      CLEAR     30  10  43 NW6       30.25R
OCEAN CITY     CLEAR     29  10  45 NW8       30.24R
WALLOPS ISLAND CLEAR     30  11  45 NW10      30.25R WCI  21
ACCOMACK*      CLEAR     32  12  43 NW13G20   30.25R WCI  22
$$

NCZ012>017-030>032-290100-
NORTH CENTRAL AND EASTERN NORTH CAROLINA

CITY           SKY/WX    TMP DP  RH WIND       PRES   REMARKS
ROANOKE RAPIDS FAIR      32  14  47 CALM      30.29R
RALEIGH        PTCLDY    34  14  43 CALM      30.29R
ELIZABETH CITY CLEAR     31  12  45 NW6       30.27R
AHOSKIE*       CLEAR     30  12  46 CALM      30.29R
EDENTON*       CLEAR     35  13  40 NW3       30.27S
CURRITUCK*     CLEAR     35   8  32 W3        30.27R
KILL DEVIL HLS CLEAR     36  13  40 NW7       30.24R
MANTEO         CLEAR     37  12  35 NW12G18   30.26R
CAPE HATTERAS  CLEAR     38  18  44 NW10G17   30.25R
TARBORO*       FAIR      31  20  64 CALM      30.30R
GOLDSBORO      CLEAR     36  16  44 CALM      30.28R
WASHINGTON     CLEAR     32  15  48 CALM      30.29R
GREENVILLE     CLEAR     32  19  59 CALM      30.29S
NEW BERN       CLEAR     32  17  54 CALM      30.29R
WILMINGTON     CLEAR     35  20  54 N6        30.29R
$$

VAZ048-290100-
ELSEWHERE

CITY           SKY/WX    TMP DP  RH WIND       PRES   REMARKS
HARRISBURG PA  PTCLDY    22   7  52 W8        30.27R
BALTIMORE      CLEAR     26   6  42 W5        30.28R
ANNAPOLIS      CLEAR     32   7  35 NW7       30.28R
ANDREWS AFB    CLEAR     30   7  36 NW13      30.28R WCI  20
PHILADELPHIA   CLEAR     32   3  29 NW8       30.25R
HENDERSON NC   CLEAR     33  12  42 CALM      30.28R
GREENSBORO     CLEAR     40  11  30 CALM      30.25R
ROCKY MOUNT    CLEAR     30  15  53 CALM      30.30R
$$

VAZ100-290100-
MARINE

STATION/POSITION TIME  TEMP    WIND        PRES    WAVE   SWELL
                       AIR SEA DIR/SP/G            HT/PER HT/PER
                 (UTC) (F)     (DEG/KT/KT) (MB)    (FT/S) (FT/S)
BRANDYWINE LGT   0000   33 36  340/ 21/ 25 1023.5R
CAPE MAY NJ      0000   32 35  330/ 18/ 26 1023.1R
LEWES DE         0000   33 34  330/ 18/ 22 1023.7R
15NM E FENWICK I 0000   34 40              1022.5R   6/ 6
OCEAN-CITY-INLET 0000   33 37  350/ 10/ 13 1023.3R
WACHAPREAGUE VA  0000   33 37  300/  4/ 12 1024.0R
THOMAS POINT MD  0000   33 36  310/ 12/ 14 1026.4R
GOOSES REEF MD   0000   34     VRB 14/ 16  1024.0R
COVE POINT MD    0000   33     320/  9/ 13 1024.8R
SOLOMONS ISLAND  0000      37                N/A
BISHOPS HEAD MD  0000   32 34  320/ 10/ 11 1024.2R
PINEY POINT MD   0000          360/ 12/ 13   N/A
POTOMAC MD       0000   35     340/ 12/ 16 1024.1R
CAMBRIDGE MD     0000   34 35  310/ 14/ 18 1024.5R
LEWISETTA VA     0000   35 37  330/ 13/ 17 1024.8S
RAPPAHANNOCK LGT 0000          320/ 20/ 24 1025.0R
STINGRAY PT      0000   35     330/ 16/ 19 1025.1R
YORK RVR RNG VA  0000   37     340/ 15/ 18 1024.0R
YORKTOWN VA      0000   36 40  340/  9/ 11 1024.6R
JAMESTOWN VA     0000   38      20/  6/  6   N/A
DOMINION TERM VA 0000   39      60/  2/  4 1024.6R
KIPTOPEKE VA     0000      44  340/ 21/ 23   N/A
CHES BAY BRIDGE  0000   38 40  320/ 17/ 19 1024.0R
CAPE HENRY VA    0000   37     330/ 21/ 24 1022.9R
CHESAPEAKE LGHT  2300   36     330/ 26/ 27 1023.7R
WILLOUBY STN VA  0000   38     340/ 10/ 11 1025.0R
S CRANEY ISL VA  0000          330/  6/  9 1024.5R
CAPE HENRY BUOY  0000      42                N/A     5/ 4   2/13
1ST LANDING BUOY 0000   38     340/ 17/ 21 1023.9R
CAPE CHARLES BUO 0000      41                N/A     4/12   3/12
OFFSHORE WE BUOY 0000      43                N/A     7/ 5   3/12
64NM E OF VA BCH 0000   39 50  340/ 23/ 29 1022.2R   9/ 6   5/14
DUCK PIER NC     0000   37 42  310/ 14/ 17 1023.2R
44100 DUCK FRF   0000      45                N/A     7/12   3/12
44056 DUCK FRF   0000      42                N/A     4/13   2/13
OREGON INLET NC  0000   35 42  330/  7/  9 1023.9R
HATTERAS NC      0000   40 45  330/ 17/ 20 1024.6R


USA.gov is the U.S. government's official web portal to all federal, state and local government web resources and services.